owner,sensor,date,latitude,longitude,vertical_datum,direction_of_sea_water_velocity,sea_water_speed,upward_sea_water_velocity,qcFlag 
TABS,ioos:station:wmo:42043:1,2003-09-01T00:00:00Z,28.9818,-94.9186,2.0,246.2959984,51.69078545,-99999.0,'11111222,11111222,99999999' 
TABS,ioos:station:wmo:42043:1,2003-09-01T00:30:00Z,28.9818,-94.9186,2.0,245.1498828,62.7498247,-99999.0,'11111222,11111222,99999999' 
TABS,ioos:station:wmo:42043:1,2003-09-01T01:00:00Z,28.9818,-94.9186,2.0,242.8586152,64.95211236,-99999.0,'11111222,11111222,99999999' 
TABS,ioos:station:wmo:42043:1,2003-09-01T01:30:00Z,28.9818,-94.9186,2.0,243.2189032,62.96364824,-99999.0,'11111222,11111222,99999999' 
TABS,ioos:station:wmo:42043:1,2003-09-01T02:00:00Z,28.9818,-94.9186,2.0,244.8546924,66.22584163,-99999.0,'11111222,11111222,99999999' 
TABS,ioos:station:wmo:42043:1,2003-09-01T02:30:00Z,28.9818,-94.9186,2.0,242.7680504,61.1248182,-99999.0,'11111222,11111222,99999999' 
TABS,ioos:station:wmo:42043:1,2003-09-01T03:00:00Z,28.9818,-94.9186,2.0,242.4513842,63.07087521,-99999.0,'11111222,11111222,99999999' 
TABS,ioos:station:wmo:42043:1,2003-09-01T03:30:00Z,28.9818,-94.9186,2.0,243.8593337,61.53380941,-99999.0,'11111222,11111222,99999999' 
TABS,ioos:station:wmo:42043:1,2003-09-01T04:00:00Z,28.9818,-94.9186,2.0,242.7354207,59.00528281,-99999.0,'11111222,11111222,99999999' 
TABS,ioos:station:wmo:42043:1,2003-09-01T04:30:00Z,28.9818,-94.9186,2.0,240.8904766,58.13245651,-99999.0,'11111222,11111222,99999999' 
TABS,ioos:station:wmo:42043:1,2003-09-01T05:00:00Z,28.9818,-94.9186,2.0,242.4408842,55.699886,-99999.0,'11111222,11111222,99999999' 
TABS,ioos:station:wmo:42043:1,2003-09-01T05:30:00Z,28.9818,-94.9186,2.0,247.9686507,48.19946888,-99999.0,'11111222,11111222,99999999' 
TABS,ioos:station:wmo:42043:1,2003-09-01T06:00:00Z,28.9818,-94.9186,2.0,252.5950294,43.26062875,-99999.0,'11111222,11111222,99999999' 
TABS,ioos:station:wmo:42043:1,2003-09-01T06:30:00Z,28.9818,-94.9186,2.0,250.8133894,45.58182642,-99999.0,'11111222,11111222,99999999' 
TABS,ioos:station:wmo:42043:1,2003-09-01T07:00:00Z,28.9818,-94.9186,2.0,239.0206608,45.15043411,-99999.0,'11111222,11111222,99999999' 
TABS,ioos:station:wmo:42043:1,2003-09-01T07:30:00Z,28.9818,-94.9186,2.0,247.5518334,50.20407254,-99999.0,'11111222,11111222,99999999' 
TABS,ioos:station:wmo:42043:1,2003-09-01T08:00:00Z,28.9818,-94.9186,2.0,251.9371417,47.185342,-99999.0,'11111222,11111222,99999999' 
TABS,ioos:station:wmo:42043:1,2003-09-01T08:30:00Z,28.9818,-94.9186,2.0,239.6476471,35.81952121,-99999.0,'11111222,11111222,99999999' 
TABS,ioos:station:wmo:42043:1,2003-09-01T09:00:00Z,28.9818,-94.9186,2.0,239.3589873,40.14502709,-99999.0,'11111222,11111222,99999999' 
TABS,ioos:station:wmo:42043:1,2003-09-01T09:30:00Z,28.9818,-94.9186,2.0,252.7724891,35.55506293,-99999.0,'11111222,11111222,99999999' 
TABS,ioos:station:wmo:42043:1,2003-09-01T10:00:00Z,28.9818,-94.9186,2.0,255.2593893,34.9398941,-99999.0,'11111222,11111222,99999999' 
TABS,ioos:station:wmo:42043:1,2003-09-01T10:30:00Z,28.9818,-94.9186,2.0,249.7001913,39.46081854,-99999.0,'11111222,11111222,99999999' 
TABS,ioos:station:wmo:42043:1,2003-09-01T11:00:00Z,28.9818,-94.9186,2.0,243.4601741,40.06139788,-99999.0,'11111222,11111222,99999999' 
TABS,ioos:station:wmo:42043:1,2003-09-01T11:30:00Z,28.9818,-94.9186,2.0,243.9418024,36.87867812,-99999.0,'11111222,11111222,99999999' 
TABS,ioos:station:wmo:42043:1,2003-09-01T12:00:00Z,28.9818,-94.9186,2.0,256.0992318,28.63868712,-99999.0,'11111222,11111222,99999999' 
TABS,ioos:station:wmo:42043:1,2003-09-01T12:30:00Z,28.9818,-94.9186,2.0,254.2499385,18.89955026,-99999.0,'11111222,11111222,99999999' 
TABS,ioos:station:wmo:42043:1,2003-09-01T13:00:00Z,28.9818,-94.9186,2.0,257.8150769,21.84203745,-99999.0,'11111222,11111222,99999999' 
TABS,ioos:station:wmo:42043:1,2003-09-01T13:30:00Z,28.9818,-94.9186,2.0,248.1072319,23.38650038,-99999.0,'11111222,11111222,99999999' 
TABS,ioos:station:wmo:42043:1,2003-09-01T14:00:00Z,28.9818,-94.9186,2.0,227.519627,23.15892916,-99999.0,'11111222,11111222,99999999' 
TABS,ioos:station:wmo:42043:1,2003-09-01T14:30:00Z,28.9818,-94.9186,2.0,232.675317,34.04107078,-99999.0,'11111222,11111222,99999999' 
TABS,ioos:station:wmo:42043:1,2003-09-01T15:00:00Z,28.9818,-94.9186,2.0,225.524661,33.95669301,-99999.0,'11111222,11111222,99999999' 
TABS,ioos:station:wmo:42043:1,2003-09-01T15:30:00Z,28.9818,-94.9186,2.0,229.8110435,33.1315635,-99999.0,'11111222,11111222,99999999' 
TABS,ioos:station:wmo:42043:1,2003-09-01T16:00:00Z,28.9818,-94.9186,2.0,235.8257248,34.48416738,-99999.0,'11111222,11111222,99999999' 
TABS,ioos:station:wmo:42043:1,2003-09-01T16:30:00Z,28.9818,-94.9186,2.0,238.2060094,33.27250066,-99999.0,'11111222,11111222,99999999' 
TABS,ioos:station:wmo:42043:1,2003-09-01T17:00:00Z,28.9818,-94.9186,2.0,233.7425962,28.60963649,-99999.0,'11111222,11111222,99999999' 
TABS,ioos:station:wmo:42043:1,2003-09-01T17:30:00Z,28.9818,-94.9186,2.0,234.3636496,27.77043932,-99999.0,'11111222,11111222,99999999' 
TABS,ioos:station:wmo:42043:1,2003-09-01T18:00:00Z,28.9818,-94.9186,2.0,236.7165541,27.33354167,-99999.0,'11111222,11111222,99999999' 
TABS,ioos:station:wmo:42043:1,2003-09-01T18:30:00Z,28.9818,-94.9186,2.0,238.5951938,29.20878806,-99999.0,'11111222,11111222,99999999' 
TABS,ioos:station:wmo:42043:1,2003-09-01T19:00:00Z,28.9818,-94.9186,2.0,235.5376021,29.84835339,-99999.0,'11111222,11111222,99999999' 
TABS,ioos:station:wmo:42043:1,2003-09-01T19:30:00Z,28.9818,-94.9186,2.0,239.8661087,28.52492419,-99999.0,'11111222,11111222,99999999' 
TABS,ioos:station:wmo:42043:1,2003-09-01T20:00:00Z,28.9818,-94.9186,2.0,238.533734,24.65558355,-99999.0,'11111222,11111222,99999999' 
TABS,ioos:station:wmo:42043:1,2003-09-01T20:30:00Z,28.9818,-94.9186,2.0,221.2599384,21.03171415,-99999.0,'11111222,11111222,99999999' 
TABS,ioos:station:wmo:42043:1,2003-09-01T21:00:00Z,28.9818,-94.9186,2.0,214.5476268,51.68443673,-99999.0,'11111222,11111222,99999999' 
TABS,ioos:station:wmo:42043:1,2003-09-01T21:30:00Z,28.9818,-94.9186,2.0,221.7814258,55.54598545,-99999.0,'11111222,11111222,99999999' 
TABS,ioos:station:wmo:42043:1,2003-09-01T22:00:00Z,28.9818,-94.9186,2.0,229.9441629,60.4634311,-99999.0,'11111222,11111222,99999999' 
TABS,ioos:station:wmo:42043:1,2003-09-01T22:30:00Z,28.9818,-94.9186,2.0,232.3901992,54.69655656,-99999.0,'11111222,11111222,99999999' 
TABS,ioos:station:wmo:42043:1,2003-09-01T23:00:00Z,28.9818,-94.9186,2.0,236.2680417,49.72056516,-99999.0,'11111222,11111222,99999999' 
TABS,ioos:station:wmo:42043:1,2003-09-01T23:30:00Z,28.9818,-94.9186,2.0,236.6599241,51.71011893,-99999.0,'11111222,11111222,99999999' 
TABS,ioos:station:wmo:42043:1,2003-09-02T00:00:00Z,28.9818,-94.9186,2.0,241.2180571,51.57100833,-99999.0,'11111222,11111222,99999999' 
TABS,ioos:station:wmo:42043:1,2003-09-02T00:30:00Z,28.9818,-94.9186,2.0,242.008242,49.04769617,-99999.0,'11111222,11111222,99999999' 
TABS,ioos:station:wmo:42043:1,2003-09-02T01:00:00Z,28.9818,-94.9186,2.0,243.7731058,53.74259577,-99999.0,'11111222,11111222,99999999' 
TABS,ioos:station:wmo:42043:1,2003-09-02T01:30:00Z,28.9818,-94.9186,2.0,246.6780407,51.37769944,-99999.0,'11111222,11111222,99999999' 
TABS,ioos:station:wmo:42043:1,2003-09-02T02:00:00Z,28.9818,-94.9186,2.0,244.4669272,48.65131961,-99999.0,'11111222,11111222,99999999' 
TABS,ioos:station:wmo:42043:1,2003-09-02T02:30:00Z,28.9818,-94.9186,2.0,247.9371037,48.08073627,-99999.0,'11111222,11111222,99999999' 
TABS,ioos:station:wmo:42043:1,2003-09-02T03:00:00Z,28.9818,-94.9186,2.0,247.543794,44.87249157,-99999.0,'11111222,11111222,99999999' 
TABS,ioos:station:wmo:42043:1,2003-09-02T03:30:00Z,28.9818,-94.9186,2.0,247.7029506,39.95755873,-99999.0,'11111222,11111222,99999999' 
TABS,ioos:station:wmo:42043:1,2003-09-02T04:00:00Z,28.9818,-94.9186,2.0,252.5956378,38.31403398,-99999.0,'11111222,11111222,99999999' 
TABS,ioos:station:wmo:42043:1,2003-09-02T04:30:00Z,28.9818,-94.9186,2.0,247.0784704,35.25356436,-99999.0,'11111222,11111222,99999999' 
TABS,ioos:station:wmo:42043:1,2003-09-02T05:00:00Z,28.9818,-94.9186,2.0,252.4236318,30.79772069,-99999.0,'11111222,11111222,99999999' 
TABS,ioos:station:wmo:42043:1,2003-09-02T05:30:00Z,28.9818,-94.9186,2.0,248.158594,24.16454014,-99999.0,'11111222,11111222,99999999' 
TABS,ioos:station:wmo:42043:1,2003-09-02T06:00:00Z,28.9818,-94.9186,2.0,247.5970157,24.9532563,-99999.0,'11111222,11111222,99999999' 
TABS,ioos:station:wmo:42043:1,2003-09-02T06:30:00Z,28.9818,-94.9186,2.0,264.448224,24.7058738,-99999.0,'11111222,11111222,99999999' 
TABS,ioos:station:wmo:42043:1,2003-09-02T07:00:00Z,28.9818,-94.9186,2.0,281.5622069,22.75165269,-99999.0,'11111222,11111222,99999999' 
TABS,ioos:station:wmo:42043:1,2003-09-02T07:30:00Z,28.9818,-94.9186,2.0,290.1932365,16.80276465,-99999.0,'11111222,11111222,99999999' 
TABS,ioos:station:wmo:42043:1,2003-09-02T08:00:00Z,28.9818,-94.9186,2.0,303.715163,19.25919261,-99999.0,'11111222,11111222,99999999' 
TABS,ioos:station:wmo:42043:1,2003-09-02T08:30:00Z,28.9818,-94.9186,2.0,303.0778178,14.78637887,-99999.0,'11111222,11111222,99999999' 
TABS,ioos:station:wmo:42043:1,2003-09-02T09:00:00Z,28.9818,-94.9186,2.0,295.6617681,14.17843433,-99999.0,'11111222,11111222,99999999' 
TABS,ioos:station:wmo:42043:1,2003-09-02T09:30:00Z,28.9818,-94.9186,2.0,293.3579523,11.82944208,-99999.0,'11111222,11111222,99999999' 
TABS,ioos:station:wmo:42043:1,2003-09-02T10:00:00Z,28.9818,-94.9186,2.0,299.1914706,6.930144299,-99999.0,'11133222,11111222,99999999' 
TABS,ioos:station:wmo:42043:1,2003-09-02T10:30:00Z,28.9818,-94.9186,2.0,287.6680201,4.250482326,-99999.0,'11133222,11111222,99999999' 
TABS,ioos:station:wmo:42043:1,2003-09-02T11:00:00Z,28.9818,-94.9186,2.0,280.3537168,2.114426636,-99999.0,'11133222,11111222,99999999' 
TABS,ioos:station:wmo:42043:1,2003-09-02T11:30:00Z,28.9818,-94.9186,2.0,207.2744857,3.971561406,-99999.0,'11133222,11111222,99999999' 
TABS,ioos:station:wmo:42043:1,2003-09-02T12:00:00Z,28.9818,-94.9186,2.0,190.1003502,5.017768428,-99999.0,'11133222,11111222,99999999' 
TABS,ioos:station:wmo:42043:1,2003-09-02T12:30:00Z,28.9818,-94.9186,2.0,174.3672869,8.762305633,-99999.0,'11133222,11111222,99999999' 
TABS,ioos:station:wmo:42043:1,2003-09-02T13:00:00Z,28.9818,-94.9186,2.0,174.9064628,13.85470678,-99999.0,'11111222,11111222,99999999' 
TABS,ioos:station:wmo:42043:1,2003-09-02T13:30:00Z,28.9818,-94.9186,2.0,179.4131652,17.58092148,-99999.0,'11111222,11111222,99999999' 
TABS,ioos:station:wmo:42043:1,2003-09-02T14:00:00Z,28.9818,-94.9186,2.0,183.5991678,23.25587453,-99999.0,'11111222,11111222,99999999' 
TABS,ioos:station:wmo:42043:1,2003-09-02T14:30:00Z,28.9818,-94.9186,2.0,190.211542,23.12633996,-99999.0,'11111222,11111222,99999999' 
TABS,ioos:station:wmo:42043:1,2003-09-02T15:00:00Z,28.9818,-94.9186,2.0,191.400442,26.00307097,-99999.0,'11111222,11111222,99999999' 
TABS,ioos:station:wmo:42043:1,2003-09-02T15:30:00Z,28.9818,-94.9186,2.0,202.4766517,28.98162866,-99999.0,'11111222,11111222,99999999' 
TABS,ioos:station:wmo:42043:1,2003-09-02T16:00:00Z,28.9818,-94.9186,2.0,216.4414812,45.23526279,-99999.0,'11111222,11111222,99999999' 
TABS,ioos:station:wmo:42043:1,2003-09-02T16:30:00Z,28.9818,-94.9186,2.0,220.7482249,53.60477777,-99999.0,'11111222,11111222,99999999' 
TABS,ioos:station:wmo:42043:1,2003-09-02T17:00:00Z,28.9818,-94.9186,2.0,224.5423742,55.81371606,-99999.0,'11111222,11111222,99999999' 
TABS,ioos:station:wmo:42043:1,2003-09-02T17:30:00Z,28.9818,-94.9186,2.0,230.0972151,53.00222259,-99999.0,'11111222,11111222,99999999' 
TABS,ioos:station:wmo:42043:1,2003-09-02T18:00:00Z,28.9818,-94.9186,2.0,230.8973271,65.51372375,-99999.0,'11111222,11111222,99999999' 
TABS,ioos:station:wmo:42043:1,2003-09-02T18:30:00Z,28.9818,-94.9186,2.0,227.0095471,67.945264,-99999.0,'11111222,11111222,99999999' 
TABS,ioos:station:wmo:42043:1,2003-09-02T19:00:00Z,28.9818,-94.9186,2.0,228.1171989,63.84015429,-99999.0,'11111222,11111222,99999999' 
TABS,ioos:station:wmo:42043:1,2003-09-02T19:30:00Z,28.9818,-94.9186,2.0,228.108326,62.19671133,-99999.0,'11111222,11111222,99999999' 
TABS,ioos:station:wmo:42043:1,2003-09-02T20:00:00Z,28.9818,-94.9186,2.0,233.321132,72.45640413,-99999.0,'11111222,11111222,99999999' 
TABS,ioos:station:wmo:42043:1,2003-09-02T20:30:00Z,28.9818,-94.9186,2.0,240.6854832,75.89899868,-99999.0,'11111222,11111222,99999999' 
TABS,ioos:station:wmo:42043:1,2003-09-02T21:00:00Z,28.9818,-94.9186,2.0,244.6888277,70.89586871,-99999.0,'11111222,11111222,99999999' 
TABS,ioos:station:wmo:42043:1,2003-09-02T21:30:00Z,28.9818,-94.9186,2.0,244.5196748,69.66601036,-99999.0,'11111222,11111222,99999999' 
TABS,ioos:station:wmo:42043:1,2003-09-02T22:00:00Z,28.9818,-94.9186,2.0,244.9405275,72.15152944,-99999.0,'11111222,11111222,99999999' 
TABS,ioos:station:wmo:42043:1,2003-09-02T22:30:00Z,28.9818,-94.9186,2.0,246.1525919,67.52471844,-99999.0,'11111222,11111222,99999999' 
TABS,ioos:station:wmo:42043:1,2003-09-02T23:00:00Z,28.9818,-94.9186,2.0,248.0448574,66.59987162,-99999.0,'11111222,11111222,99999999' 
TABS,ioos:station:wmo:42043:1,2003-09-02T23:30:00Z,28.9818,-94.9186,2.0,246.0504022,61.43961344,-99999.0,'11111222,11111222,99999999' 
TABS,ioos:station:wmo:42043:1,2003-09-03T00:00:00Z,28.9818,-94.9186,2.0,250.0899839,64.63306429,-99999.0,'11111222,11111222,99999999' 
TABS,ioos:station:wmo:42043:1,2003-09-03T00:30:00Z,28.9818,-94.9186,2.0,252.9879624,64.29312949,-99999.0,'11111222,11111222,99999999' 
TABS,ioos:station:wmo:42043:1,2003-09-03T01:00:00Z,28.9818,-94.9186,2.0,250.315958,64.57323362,-99999.0,'11111222,11111222,99999999' 
TABS,ioos:station:wmo:42043:1,2003-09-03T01:30:00Z,28.9818,-94.9186,2.0,249.6181382,63.77250583,-99999.0,'11111222,11111222,99999999' 
TABS,ioos:station:wmo:42043:1,2003-09-03T02:00:00Z,28.9818,-94.9186,2.0,254.0199166,57.35628736,-99999.0,'11111222,11111222,99999999' 
TABS,ioos:station:wmo:42043:1,2003-09-03T02:30:00Z,28.9818,-94.9186,2.0,254.2311501,55.60244779,-99999.0,'11111222,11111222,99999999' 
TABS,ioos:station:wmo:42043:1,2003-09-03T03:00:00Z,28.9818,-94.9186,2.0,256.3141367,49.91719243,-99999.0,'11111222,11111222,99999999' 
TABS,ioos:station:wmo:42043:1,2003-09-03T03:30:00Z,28.9818,-94.9186,2.0,252.928106,52.6288761,-99999.0,'11111222,11111222,99999999' 
TABS,ioos:station:wmo:42043:1,2003-09-03T04:00:00Z,28.9818,-94.9186,2.0,251.1431312,51.5781446,-99999.0,'11111222,11111222,99999999' 
TABS,ioos:station:wmo:42043:1,2003-09-03T04:30:00Z,28.9818,-94.9186,2.0,254.4876559,50.47870442,-99999.0,'11111222,11111222,99999999' 
TABS,ioos:station:wmo:42043:1,2003-09-03T05:00:00Z,28.9818,-94.9186,2.0,258.9750392,46.07021272,-99999.0,'11111222,11111222,99999999' 
TABS,ioos:station:wmo:42043:1,2003-09-03T05:30:00Z,28.9818,-94.9186,2.0,264.5285126,39.75108804,-99999.0,'11111222,11111222,99999999' 
TABS,ioos:station:wmo:42043:1,2003-09-03T06:00:00Z,28.9818,-94.9186,2.0,267.0943514,38.07894169,-99999.0,'11111222,11111222,99999999' 
TABS,ioos:station:wmo:42043:1,2003-09-03T06:30:00Z,28.9818,-94.9186,2.0,269.7381807,35.07036498,-99999.0,'11111222,11111222,99999999' 
TABS,ioos:station:wmo:42043:1,2003-09-03T07:00:00Z,28.9818,-94.9186,2.0,262.1608671,30.86843857,-99999.0,'11111222,11111222,99999999' 
TABS,ioos:station:wmo:42043:1,2003-09-03T07:30:00Z,28.9818,-94.9186,2.0,256.3430621,28.5470699,-99999.0,'11111222,11111222,99999999' 
TABS,ioos:station:wmo:42043:1,2003-09-03T08:00:00Z,28.9818,-94.9186,2.0,267.518482,23.56208819,-99999.0,'11111222,11111222,99999999' 
TABS,ioos:station:wmo:42043:1,2003-09-03T08:30:00Z,28.9818,-94.9186,2.0,255.8882077,24.03530112,-99999.0,'11111222,11111222,99999999' 
TABS,ioos:station:wmo:42043:1,2003-09-03T09:00:00Z,28.9818,-94.9186,2.0,256.9567267,22.24385983,-99999.0,'11111222,11111222,99999999' 
TABS,ioos:station:wmo:42043:1,2003-09-03T09:30:00Z,28.9818,-94.9186,2.0,260.0063909,20.22687569,-99999.0,'11111222,11111222,99999999' 
TABS,ioos:station:wmo:42043:1,2003-09-03T10:00:00Z,28.9818,-94.9186,2.0,258.5502679,16.92683373,-99999.0,'11111222,11111222,99999999' 
TABS,ioos:station:wmo:42043:1,2003-09-03T10:30:00Z,28.9818,-94.9186,2.0,261.6080364,13.63598915,-99999.0,'11111222,11111222,99999999' 
TABS,ioos:station:wmo:42043:1,2003-09-03T11:00:00Z,28.9818,-94.9186,2.0,237.8277874,12.03844674,-99999.0,'11111222,11111222,99999999' 
TABS,ioos:station:wmo:42043:1,2003-09-03T11:30:00Z,28.9818,-94.9186,2.0,218.6955062,12.42831042,-99999.0,'11111222,11111222,99999999' 
TABS,ioos:station:wmo:42043:1,2003-09-03T12:00:00Z,28.9818,-94.9186,2.0,206.8461546,14.57039464,-99999.0,'11111222,11111222,99999999' 
TABS,ioos:station:wmo:42043:1,2003-09-03T12:30:00Z,28.9818,-94.9186,2.0,208.6396912,17.04554194,-99999.0,'11111222,11111222,99999999' 
TABS,ioos:station:wmo:42043:1,2003-09-03T13:00:00Z,28.9818,-94.9186,2.0,203.3546787,19.24696859,-99999.0,'11111222,11111222,99999999' 
TABS,ioos:station:wmo:42043:1,2003-09-03T13:30:00Z,28.9818,-94.9186,2.0,201.1053359,24.77172784,-99999.0,'11111222,11111222,99999999' 
TABS,ioos:station:wmo:42043:1,2003-09-03T14:00:00Z,28.9818,-94.9186,2.0,205.9934846,32.74213493,-99999.0,'11111222,11111222,99999999' 
TABS,ioos:station:wmo:42043:1,2003-09-03T14:30:00Z,28.9818,-94.9186,2.0,204.055697,40.45347575,-99999.0,'11111222,11111222,99999999' 
TABS,ioos:station:wmo:42043:1,2003-09-03T15:00:00Z,28.9818,-94.9186,2.0,202.6889413,35.59464145,-99999.0,'11111222,11111222,99999999' 
TABS,ioos:station:wmo:42043:1,2003-09-03T15:30:00Z,28.9818,-94.9186,2.0,209.0887286,45.2930105,-99999.0,'11111222,11111222,99999999' 
TABS,ioos:station:wmo:42043:1,2003-09-03T16:00:00Z,28.9818,-94.9186,2.0,213.4065815,53.30734002,-99999.0,'11111222,11111222,99999999' 
TABS,ioos:station:wmo:42043:1,2003-09-03T16:30:00Z,28.9818,-94.9186,2.0,214.3152254,52.59425919,-99999.0,'11111222,11111222,99999999' 
TABS,ioos:station:wmo:42043:1,2003-09-03T17:00:00Z,28.9818,-94.9186,2.0,223.7226455,62.82082776,-99999.0,'11111222,11111222,99999999' 
TABS,ioos:station:wmo:42043:1,2003-09-03T17:30:00Z,28.9818,-94.9186,2.0,227.2172054,67.79867329,-99999.0,'11111222,11111222,99999999' 
TABS,ioos:station:wmo:42043:1,2003-09-03T18:00:00Z,28.9818,-94.9186,2.0,229.0216651,68.95717512,-99999.0,'11111222,11111222,99999999' 
TABS,ioos:station:wmo:42043:1,2003-09-03T18:30:00Z,28.9818,-94.9186,2.0,229.7456872,68.71181558,-99999.0,'11111222,11111222,99999999' 
TABS,ioos:station:wmo:42043:1,2003-09-03T19:00:00Z,28.9818,-94.9186,2.0,229.0672962,70.57733347,-99999.0,'11111222,11111222,99999999' 
TABS,ioos:station:wmo:42043:1,2003-09-03T19:30:00Z,28.9818,-94.9186,2.0,228.3598877,68.5233172,-99999.0,'11111222,11111222,99999999' 
TABS,ioos:station:wmo:42043:1,2003-09-03T20:00:00Z,28.9818,-94.9186,2.0,230.5980485,65.74216988,-99999.0,'11111222,11111222,99999999' 
TABS,ioos:station:wmo:42043:1,2003-09-03T20:30:00Z,28.9818,-94.9186,2.0,234.2932136,59.98636678,-99999.0,'11111222,11111222,99999999' 
TABS,ioos:station:wmo:42043:1,2003-09-03T21:00:00Z,28.9818,-94.9186,2.0,241.1268172,57.86270388,-99999.0,'11111222,11111222,99999999' 
TABS,ioos:station:wmo:42043:1,2003-09-03T21:30:00Z,28.9818,-94.9186,2.0,242.0485144,64.15367332,-99999.0,'11111222,11111222,99999999' 
TABS,ioos:station:wmo:42043:1,2003-09-03T22:00:00Z,28.9818,-94.9186,2.0,247.4073476,65.5176999,-99999.0,'11111222,11111222,99999999' 
TABS,ioos:station:wmo:42043:1,2003-09-03T22:30:00Z,28.9818,-94.9186,2.0,255.8576273,60.45210749,-99999.0,'11111222,11111222,99999999' 
TABS,ioos:station:wmo:42043:1,2003-09-03T23:00:00Z,28.9818,-94.9186,2.0,260.1763292,51.93138261,-99999.0,'11111222,11111222,99999999' 
TABS,ioos:station:wmo:42043:1,2003-09-03T23:30:00Z,28.9818,-94.9186,2.0,264.3921115,42.57373016,-99999.0,'11111222,11111222,99999999' 
TABS,ioos:station:wmo:42043:1,2003-09-04T00:00:00Z,28.9818,-94.9186,2.0,264.9340196,40.65880102,-99999.0,'11111222,11111222,99999999' 
TABS,ioos:station:wmo:42043:1,2003-09-04T00:30:00Z,28.9818,-94.9186,2.0,267.2289145,40.54739942,-99999.0,'11111222,11111222,99999999' 
TABS,ioos:station:wmo:42043:1,2003-09-04T01:00:00Z,28.9818,-94.9186,2.0,268.5743912,39.40218903,-99999.0,'11111222,11111222,99999999' 
TABS,ioos:station:wmo:42043:1,2003-09-04T01:30:00Z,28.9818,-94.9186,2.0,271.5709038,34.66302064,-99999.0,'11111222,11111222,99999999' 
TABS,ioos:station:wmo:42043:1,2003-09-04T02:00:00Z,28.9818,-94.9186,2.0,270.9107021,30.21381307,-99999.0,'11111222,11111222,99999999' 
TABS,ioos:station:wmo:42043:1,2003-09-04T02:30:00Z,28.9818,-94.9186,2.0,272.5960913,34.00488935,-99999.0,'11111222,11111222,99999999' 
TABS,ioos:station:wmo:42043:1,2003-09-04T03:00:00Z,28.9818,-94.9186,2.0,270.5074488,30.51119467,-99999.0,'11111222,11111222,99999999' 
TABS,ioos:station:wmo:42043:1,2003-09-04T03:30:00Z,28.9818,-94.9186,2.0,248.8102331,25.72955693,-99999.0,'11111222,11111222,99999999' 
TABS,ioos:station:wmo:42043:1,2003-09-04T04:00:00Z,28.9818,-94.9186,2.0,218.4854893,26.7386331,-99999.0,'11111222,11111222,99999999' 
TABS,ioos:station:wmo:42043:1,2003-09-04T04:30:00Z,28.9818,-94.9186,2.0,279.5778257,31.91483981,-99999.0,'11111222,11111222,99999999' 
TABS,ioos:station:wmo:42043:1,2003-09-04T05:00:00Z,28.9818,-94.9186,2.0,263.8896023,25.83676837,-99999.0,'11111222,11111222,99999999' 
TABS,ioos:station:wmo:42043:1,2003-09-04T05:30:00Z,28.9818,-94.9186,2.0,259.1253916,22.95213498,-99999.0,'11111222,11111222,99999999' 
TABS,ioos:station:wmo:42043:1,2003-09-04T06:00:00Z,28.9818,-94.9186,2.0,245.8647771,27.00020741,-99999.0,'11111222,11111222,99999999' 
TABS,ioos:station:wmo:42043:1,2003-09-04T06:30:00Z,28.9818,-94.9186,2.0,254.5905642,29.05440586,-99999.0,'11111222,11111222,99999999' 
TABS,ioos:station:wmo:42043:1,2003-09-04T07:00:00Z,28.9818,-94.9186,2.0,251.6509063,29.41554011,-99999.0,'11111222,11111222,99999999' 
TABS,ioos:station:wmo:42043:1,2003-09-04T07:30:00Z,28.9818,-94.9186,2.0,234.3544366,34.06178063,-99999.0,'11111222,11111222,99999999' 
TABS,ioos:station:wmo:42043:1,2003-09-04T08:00:00Z,28.9818,-94.9186,2.0,231.5360699,36.02793638,-99999.0,'11111222,11111222,99999999' 
TABS,ioos:station:wmo:42043:1,2003-09-04T08:30:00Z,28.9818,-94.9186,2.0,235.5710455,27.32680186,-99999.0,'11111222,11111222,99999999' 
TABS,ioos:station:wmo:42043:1,2003-09-04T09:00:00Z,28.9818,-94.9186,2.0,232.6565051,27.11892513,-99999.0,'11111222,11111222,99999999' 
TABS,ioos:station:wmo:42043:1,2003-09-04T09:30:00Z,28.9818,-94.9186,2.0,232.3233669,27.56873047,-99999.0,'11111222,11111222,99999999' 
TABS,ioos:station:wmo:42043:1,2003-09-04T10:00:00Z,28.9818,-94.9186,2.0,227.8275136,28.09220532,-99999.0,'11111222,11111222,99999999' 
TABS,ioos:station:wmo:42043:1,2003-09-04T10:30:00Z,28.9818,-94.9186,2.0,228.617251,28.80127949,-99999.0,'11111222,11111222,99999999' 
TABS,ioos:station:wmo:42043:1,2003-09-04T11:00:00Z,28.9818,-94.9186,2.0,222.4770685,25.5442381,-99999.0,'11111222,11111222,99999999' 
TABS,ioos:station:wmo:42043:1,2003-09-04T11:30:00Z,28.9818,-94.9186,2.0,218.186866,33.32080581,-99999.0,'11111222,11111222,99999999' 
TABS,ioos:station:wmo:42043:1,2003-09-04T12:00:00Z,28.9818,-94.9186,2.0,212.5891241,34.94146534,-99999.0,'11111222,11111222,99999999' 
TABS,ioos:station:wmo:42043:1,2003-09-04T12:30:00Z,28.9818,-94.9186,2.0,212.9049555,38.67455236,-99999.0,'11111222,11111222,99999999' 
TABS,ioos:station:wmo:42043:1,2003-09-04T13:00:00Z,28.9818,-94.9186,2.0,213.8200465,35.37609645,-99999.0,'11111222,11111222,99999999' 
TABS,ioos:station:wmo:42043:1,2003-09-04T13:30:00Z,28.9818,-94.9186,2.0,216.5213981,40.47874751,-99999.0,'11111222,11111222,99999999' 
TABS,ioos:station:wmo:42043:1,2003-09-04T14:00:00Z,28.9818,-94.9186,2.0,215.6134025,42.05610776,-99999.0,'11111222,11111222,99999999' 
TABS,ioos:station:wmo:42043:1,2003-09-04T14:30:00Z,28.9818,-94.9186,2.0,217.5432917,39.12270441,-99999.0,'11111222,11111222,99999999' 
TABS,ioos:station:wmo:42043:1,2003-09-04T15:00:00Z,28.9818,-94.9186,2.0,222.1790611,39.22831248,-99999.0,'11111222,11111222,99999999' 
TABS,ioos:station:wmo:42043:1,2003-09-04T15:30:00Z,28.9818,-94.9186,2.0,227.9194977,36.64742283,-99999.0,'11111222,11111222,99999999' 
TABS,ioos:station:wmo:42043:1,2003-09-04T16:00:00Z,28.9818,-94.9186,2.0,229.1618382,32.05283295,-99999.0,'11111222,11111222,99999999' 